This is the latest recevied weather packets stored in our database for station/object LRBV. If no packets are shown the sender has not sent any weather packets the latest 1 day(s).
| Time | Temp. | Humidity | Pressure | Rain* | Wind** | Luminosity | Snow |
|---|---|---|---|---|---|---|---|
| 1778067231 | 25° C | 24% | 1014 hPa | - | - | - | - |
| 1778065430 | 23.89° C | 31% | 1014 hPa | - | - | - | - |
| 1778063631 | 23.89° C | 29% | 1014 hPa | - | - | - | - |
| 1778062731 | 22.78° C | 33% | 1014 hPa | - | - | - | - |
| 1778061831 | 22.78° C | 33% | 1014 hPa | - | - | - | - |
| 1778060931 | 22.22° C | 36% | 1015 hPa | - | - | - | - |
| 1778057331 | 20° C | 49% | 1015 hPa | - | - | - | - |
| 1778055527 | 18.89° C | 46% | 1015 hPa | - | - | - | - |
| 1778054631 | 18.89° C | 46% | 1015 hPa | - | - | - | - |
| 1778053731 | 17.22° C | 56% | 1015 hPa | - | - | - | - |
| 1778052831 | 17.22° C | 56% | 1015 hPa | - | - | - | - |
| 1778051930 | 16.11° C | 59% | 1015 hPa | - | - | - | - |
| 1778051030 | 16.11° C | 59% | 1015 hPa | - | - | - | - |
| 1778050131 | 15° C | 59% | 1015 hPa | - | - | - | - |
| 1778048331 | 13.89° C | 67% | 1015 hPa | - | - | - | - |
| 1778047432 | 13.89° C | 67% | 1015 hPa | - | - | - | - |
| 1778046532 | 12.22° C | 72% | 1015 hPa | - | - | - | - |
| 1778045639 | 12.22° C | 72% | 1015 hPa | - | - | - | - |
| 1778044731 | 11.11° C | 77% | 1015 hPa | - | - | - | - |
| 1778042946 | 8.89° C | 82% | 1015 hPa | - | - | - | - |
| 1778042034 | 8.89° C | 82% | 1015 hPa | - | - | - | - |
| 1778039331 | 6.11° C | 93% | 1015 hPa | - | - | - | - |
| 1778037530 | 7.22° C | 87% | 1015 hPa | - | - | - | - |
| 1778036630 | 7.22° C | 87% | 1015 hPa | - | - | - | - |
| 1778034830 | 6.11° C | 87% | 1015 hPa | - | - | - | - |
* Rain since midnight (hover to see other rain measurements)
** Current wind speed in m/s (hover to see current wind gust speed)